| time (UTC) | temp C | wind direction | speed KPH | gust KPH | rain 1hr cm | rain 24hr cm | rain mn cm | humidity % | barometer mb |
| 20260506183039 | 17 | 188 | 3.2 | 22.5 | 0.00 | 0.94 | 0.94 | 64 | 1013.6 |
| 20260506181527 | 17 | 180 | 3.2 | 8.0 | 0.00 | 0.94 | 0.94 | 62 | 1013.5 |
| 20260506180024 | 17 | 189 | 3.2 | 8.0 | 0.00 | 0.94 | 0.94 | 66 | 1013.6 |
| 20260506174520 | 16 | 194 | 1.6 | 11.3 | 0.00 | 0.94 | 0.94 | 67 | 1013.6 |
| 20260506173017 | 15 | 182 | 0.0 | 6.4 | 0.00 | 0.94 | 0.94 | 71 | 1013.3 |
| 20260506171515 | 14 | 178 | 4.8 | 12.9 | 0.03 | 0.94 | 0.94 | 70 | 1013.2 |
| 20260506170011 | 13 | 184 | 3.2 | 6.4 | 0.03 | 0.94 | 0.94 | 75 | 1013.5 |
| 20260506164510 | 12 | 161 | 1.6 | 6.4 | 0.05 | 0.94 | 0.94 | 83 | 1013.5 |
| 20260506163013 | 12 | 174 | 1.6 | 9.7 | 0.13 | 0.94 | 0.94 | 83 | 1014.4 |
| 20260506161510 | 12 | 143 | 1.6 | 6.4 | 0.15 | 0.91 | 0.91 | 84 | 1015.2 |
| 20260506160010 | 12 | 184 | 3.2 | 9.7 | 0.58 | 0.91 | 0.91 | 84 | 1015.6 |
| 20260506154508 | 12 | 179 | 3.2 | 6.4 | 0.76 | 0.89 | 0.89 | 83 | 1015.7 |
| 20260506153010 | 12 | 196 | 1.6 | 11.3 | 0.79 | 0.81 | 0.81 | 83 | 1015.3 |
| 20260506151506 | 12 | 196 | 1.6 | 8.0 | 0.76 | 0.76 | 0.76 | 81 | 1014.6 |
| 20260506150101 | 13 | 277 | 3.2 | 9.7 | 0.33 | 0.33 | 0.33 | 77 | 1015.3 |
| 20260506144606 | 13 | 219 | 0.0 | 8.0 | 0.13 | 0.13 | 0.13 | 76 | 1013.7 |
| 20260506143102 | 13 | 190 | 1.6 | 8.0 | 0.03 | 0.03 | 0.03 | 72 | 1014.1 |
| 20260506141554 | 13 | 192 | 1.6 | 14.5 | 0.00 | 0.00 | 0.00 | 71 | 1014.0 |
| 20260506140054 | 14 | 192 | 0.0 | 4.8 | 0.00 | 0.00 | 0.00 | 70 | 1013.9 |
| 20260506134553 | 14 | 209 | 3.2 | 6.4 | 0.00 | 0.00 | 0.00 | 72 | 1013.3 |
| 20260506133052 | 13 | 192 | 1.6 | 4.8 | 0.00 | 0.00 | 0.00 | 72 | 1013.4 |
| 20260506131551 | 13 | 180 | 0.0 | 9.7 | 0.00 | 0.00 | 0.00 | 70 | 1013.3 |
| 20260506130058 | 13 | 182 | 1.6 | 4.8 | 0.00 | 0.00 | 0.00 | 68 | 1014.1 |
| 20260506124549 | 13 | 215 | 1.6 | 8.0 | 0.00 | 0.00 | 0.00 | 68 | 1013.4 |
| 20260506123049 | 13 | 179 | 3.2 | 11.3 | 0.00 | 0.00 | 0.00 | 69 | 1013.2 |
| 20260506121552 | 14 | 170 | 1.6 | 8.0 | 0.00 | 0.00 | 0.00 | 67 | 1013.2 |
| 20260506120046 | 14 | 198 | 1.6 | 4.8 | 0.00 | 0.00 | 0.00 | 66 | 1013.5 |
| 20260506114545 | 14 | 231 | 1.6 | 6.4 | 0.00 | 0.00 | 0.00 | 66 | 1013.2 |
| 20260506113045 | 14 | 178 | 1.6 | 8.0 | 0.00 | 0.00 | 0.00 | 66 | 1013.2 |
| 20260506111544 | 14 | 93 | 1.6 | 9.7 | 0.00 | 0.00 | 0.00 | 66 | 1013.2 |
| 20260506110044 | 14 | 238 | 4.8 | 19.3 | 0.00 | 0.00 | 0.00 | 65 | 1013.3 |
| 20260506104543 | 14 | 223 | 1.6 | 11.3 | 0.00 | 0.00 | 0.00 | 65 | 1012.9 |
| 20260506103049 | 14 | 171 | 1.6 | 14.5 | 0.00 | 0.00 | 0.00 | 65 | 1012.6 |
| 20260506101538 | 14 | 186 | 1.6 | 17.7 | 0.00 | 0.00 | 0.00 | 65 | 1012.2 |
| 20260506100036 | 14 | 192 | 4.8 | 16.1 | 0.00 | 0.00 | 0.00 | 65 | 1012.0 |
| 20260506094536 | 13 | 193 | 1.6 | 8.0 | 0.00 | 0.00 | 0.00 | 65 | 1011.9 |
| 20260506093035 | 13 | 232 | 3.2 | 14.5 | 0.00 | 0.00 | 0.00 | 64 | 1011.8 |
| 20260506091535 | 13 | 227 | 0.0 | 12.9 | 0.00 | 0.00 | 0.00 | 64 | 1011.9 |
| 20260506090044 | 13 | 119 | 3.2 | 17.7 | 0.00 | 0.00 | 0.00 | 63 | 1012.0 |
| 20260506084531 | 13 | 130 | 1.6 | 12.9 | 0.00 | 0.00 | 0.00 | 62 | 1012.3 |
| 20260506083030 | 13 | 236 | 4.8 | 14.5 | 0.00 | 0.00 | 0.00 | 61 | 1012.3 |
| 20260506081534 | 13 | 179 | 0.0 | 4.8 | 0.00 | 0.00 | 0.00 | 60 | 1012.3 |
| 20260506073025 | 13 | 215 | 1.6 | 8.0 | 0.00 | 0.00 | 0.00 | 55 | 1012.8 |
| 20260506071523 | 13 | 182 | 1.6 | 12.9 | 0.00 | 0.00 | 0.00 | 53 | 1013.2 |
| 20260506070121 | 13 | 200 | 3.2 | 14.5 | 0.00 | 0.00 | 0.00 | 51 | 1013.3 |
| 20260506061540 | 13 | 180 | 1.6 | 16.1 | 0.00 | 0.00 | 0.00 | 49 | 1013.9 |
| 20260506044519 | 14 | 247 | 3.2 | 14.5 | 0.00 | 0.00 | 0.00 | 49 | 1013.7 |
| 20260506043019 | 14 | 165 | 4.8 | 14.5 | 0.00 | 0.00 | 0.00 | 50 | 1014.4 |
| 20260506041508 | 14 | 135 | 1.6 | 9.7 | 0.00 | 0.00 | 0.00 | 51 | 1014.2 |
| 20260506040005 | 14 | 154 | 4.8 | 14.5 | 0.00 | 0.00 | 0.00 | 51 | 1014.1 |
| 20260506034505 | 14 | 184 | 3.2 | 6.4 | 0.00 | 0.00 | 0.00 | 51 | 1013.9 |
| 20260506033005 | 14 | 156 | 3.2 | 19.3 | 0.00 | 0.00 | 0.00 | 51 | 1014.0 |
| 20260506031504 | 13 | 196 | 3.2 | 8.0 | 0.00 | 0.00 | 0.00 | 50 | 1014.1 |
| 20260506024503 | 14 | 192 | 4.8 | 16.1 | 0.00 | 0.00 | 0.00 | 50 | 1014.0 |
| 20260506023103 | 13 | 144 | 1.6 | 11.3 | 0.00 | 0.00 | 0.00 | 48 | 1014.3 |
| 20260506021606 | 13 | 195 | 1.6 | 8.0 | 0.00 | 0.00 | 0.00 | 47 | 1014.2 |
| 20260506020059 | 14 | 184 | 0.0 | 12.9 | 0.00 | 0.00 | 0.00 | 46 | 1013.9 |
| 20260506014559 | 14 | 149 | 1.6 | 6.4 | 0.00 | 0.00 | 0.00 | 45 | 1013.9 |
| 20260506013106 | 14 | 229 | 1.6 | 20.9 | 0.00 | 0.00 | 0.00 | 44 | 1014.0 |
| 20260506011606 | 14 | 188 | 0.0 | 9.7 | 0.00 | 0.00 | 0.00 | 44 | 1014.1 |
| 20260506010057 | 14 | 182 | 1.6 | 4.8 | 0.00 | 0.00 | 0.00 | 44 | 1014.1 |
| 20260506004556 | 15 | 196 | 1.6 | 14.5 | 0.00 | 0.00 | 0.00 | 44 | 1013.9 |
| 20260506003056 | 15 | 219 | 1.6 | 6.4 | 0.00 | 0.00 | 0.00 | 42 | 1013.9 |
| 20260506001555 | 15 | 202 | 4.8 | 9.7 | 0.00 | 0.00 | 0.00 | 42 | 1013.7 |
| 20260506000055 | 15 | 200 | 0.0 | 6.4 | 0.00 | 0.00 | 0.00 | 43 | 1013.9 |
| 20260505234606 | 15 | 160 | 1.6 | 4.8 | 0.00 | 0.00 | 0.00 | 42 | 1013.8 |
| 20260505233054 | 16 | 161 | 1.6 | 6.4 | 0.00 | 0.00 | 0.00 | 40 | 1013.7 |
| 20260505231605 | 16 | 154 | 3.2 | 12.9 | 0.00 | 0.00 | 0.00 | 40 | 1013.9 |
| 20260505230054 | 17 | 177 | 3.2 | 12.9 | 0.00 | 0.00 | 0.00 | 39 | 1013.9 |
| 20260505224552 | 16 | 226 | 3.2 | 9.7 | 0.00 | 0.00 | 0.00 | 38 | 1013.7 |
| 20260505223102 | 17 | 169 | 3.2 | 14.5 | 0.00 | 0.00 | 0.00 | 39 | 1014.1 |
| 20260505221557 | 17 | 179 | 3.2 | 8.0 | 0.00 | 0.00 | 0.00 | 38 | 1013.8 |
| 20260505220052 | 17 | 180 | 4.8 | 14.5 | 0.00 | 0.00 | 0.00 | 36 | 1013.9 |
| 20260505214611 | 17 | 173 | 3.2 | 20.9 | 0.00 | 0.00 | 0.00 | 35 | 1013.8 |
| 20260505213051 | 18 | 170 | 3.2 | 9.7 | 0.00 | 0.00 | 0.00 | 33 | 1013.8 |
| 20260505211547 | 18 | 189 | 3.2 | 14.5 | 0.00 | 0.00 | 0.00 | 31 | 1013.6 |
| 20260505210047 | 18 | 188 | 1.6 | 4.8 | 0.00 | 0.00 | 0.00 | 30 | 1013.8 |
| 20260505204546 | 18 | 176 | 1.6 | 11.3 | 0.00 | 0.00 | 0.00 | 33 | 1014.1 |
| 20260505203043 | 17 | 172 | 1.6 | 20.9 | 0.00 | 0.00 | 0.00 | 33 | 1014.2 |
| 20260505201541 | 17 | 164 | 1.6 | 16.1 | 0.00 | 0.00 | 0.00 | 34 | 1014.3 |
| 20260505200052 | 16 | 187 | 3.2 | 8.0 | 0.00 | 0.00 | 0.00 | 31 | 1014.4 |
| 20260505194541 | 17 | 250 | 1.6 | 6.4 | 0.00 | 0.00 | 0.00 | 33 | 1014.5 |
| 20260505193039 | 17 | 190 | 3.2 | 11.3 | 0.00 | 0.00 | 0.00 | 33 | 1015.0 |
| 20260505191544 | 17 | 211 | 1.6 | 11.3 | 0.00 | 0.00 | 0.00 | 33 | 1014.9 |
| 20260505190040 | 18 | 173 | 3.2 | 4.8 | 0.00 | 0.00 | 0.00 | 31 | 1015.0 |
| 20260505184537 | 18 | 191 | 1.6 | 14.5 | 0.00 | 0.00 | 0.00 | 33 | 1015.2 |